Regional Weather Roundup
Issued by NWS

Home | Current Version | Previous Version | Graphics & Text | Print | Product List | Glossary On
Versions: 1 2 3 4 5 6 7 8 9 10 11 12 13 14 15 16 17 18 19 20 21 22 23 24 25 26 27 28 29 30 31 32 33 34 35 36 37 38 39 40 41 42 43 44 45 46 47 48 49 50
000
ASUS43 KBIS 011410
RWRND

NORTH DAKOTA REGIONAL WEATHER ROUNDUP
NATIONAL WEATHER SERVICE BISMARCK ND
800 AM CST WED MAR 01 2017

NOTE: "FAIR" INDICATES FEW OR NO CLOUDS BELOW 12,000 FEET WITH NO
SIGNIFICANT WEATHER AND/OR OBSTRUCTIONS TO VISIBILITY.


NDZ001>003-009>011-017-011500-
NORTHWEST NORTH DAKOTA

CITY           SKY/WX    TMP DP  RH WIND       PRES   REMARKS
WILLISTON      FAIR       6   3  87 SW3       30.06R
MINOT          CLOUDY    12   8  84 W14       30.04R WCI  -3
MINOT AFB      MOCLDY     7   3  85 NW13      30.04R WCI  -9
$$

NDZ018>021-031>035-040>046-011500-
SOUTHWEST NORTH DAKOTA

CITY           SKY/WX    TMP DP  RH WIND       PRES   REMARKS
BISMARCK       FAIR      18  14  84 NW10      30.04R WCI   6
DICKINSON      FAIR      11   8  88 W7        30.01R WCI   0
GARRISON         N/A      7   3  84 NW10      30.03R WCI  -8
HETTINGER ARPT CLOUDY    20  13  74 NW21      30.04R WCI   4
$$

NDZ004>008-012>016-024-026-027-054-011500-
NORTHEAST NORTH DAKOTA

CITY           SKY/WX    TMP DP  RH WIND       PRES   REMARKS
GRAND FORKS    LGT SNOW  14   5  67 N14       30.01R VSB 1   WCI  -1
GRND FRKS AFB  FLURRIES  14   9  79 N9        30.02R WCI   2
DEVILS LAKE    LGT SNOW   7   5  92 W10       30.02R FOG     WCI  -8
$$

NDZ022-023-025-028>030-036>039-047>053-011500-
SOUTHEAST NORTH DAKOTA

CITY           SKY/WX    TMP DP  RH WIND       PRES   REMARKS
FARGO          MOCLDY    15   9  76 NW12      29.99R WCI   2
JAMESTOWN      FLURRIES  14  11  87 N12       29.99R WCI   0
$$




USA.gov is the U.S. government's official web portal to all federal, state and local government web resources and services.